Location: Lancaster
(34.6980°N, 118.1360°W)
Time: 04:05:10
(UTC-07:00)

Vanguard 1 - All Passes

Search period start: 19 July 2018 00:00
Search period end: 29 July 2018 00:00
Orbit: 650 x 3833 km, 34.2° (Epoch: 18 July)

Date Brightness Start Highest point End Pass type
(mag) Time Alt. Az. Time Alt. Az. Time Alt. Az.
19 Jul - 00:36:08 10° WSW 00:41:14 74° S 00:45:38 10° E night (unlit)
19 Jul - 02:56:44 10° W 03:01:07 74° S 03:06:41 10° ESE visible
19 Jul - 05:16:38 10° W 05:21:18 31° SSW 05:28:21 10° SE visible
19 Jul - 20:16:39 10° S 20:21:07 14° SSE 20:24:41 10° SE daylight
19 Jul - 22:35:33 10° SW 22:42:11 40° SSE 22:46:41 10° E visible
20 Jul - 00:57:11 10° W 01:02:10 84° S 01:06:37 10° E night (unlit)
20 Jul - 03:17:40 10° W 03:22:02 60° SSW 03:27:43 10° ESE visible
20 Jul - 05:38:00 10° WSW 05:42:22 23° SSW 05:48:31 10° SSE daylight
20 Jul - 20:35:32 10° SSW 20:42:19 21° SSE 20:47:05 10° ESE visible
20 Jul - 22:56:23 10° WSW 23:03:07 53° SSE 23:07:41 10° E visible
21 Jul - 01:18:16 10° W 01:23:05 87° S 01:27:37 10° E night (unlit)
21 Jul - 03:38:39 10° W 03:42:56 46° SSW 03:48:38 10° SE visible
21 Jul - 05:59:58 10° WSW 06:03:28 15° SSW 06:07:56 10° S daylight
21 Jul - 20:55:24 10° SSW 21:03:28 28° SSE 21:08:41 10° E visible
21 Jul - 23:17:26 10° WSW 23:24:03 66° SSE 23:28:37 10° E visible
22 Jul - 01:39:20 10° W 01:44:01 82° S 01:48:37 10° E night (unlit)
22 Jul - 03:59:43 10° W 04:03:51 33° SSW 04:09:18 10° SE visible
22 Jul - 18:56:53 10° S 19:02:38 14° SSE 19:07:09 10° ESE daylight
22 Jul - 21:15:48 10° SW 21:24:33 38° SSE 21:29:55 10° E visible
22 Jul - 23:38:36 10° WSW 23:45:00 78° S 23:49:31 10° E visible
23 Jul - 02:00:22 10° W 02:04:56 70° SSW 02:09:35 10° ESE visible
23 Jul - 04:21:01 10° WSW 04:24:46 23° SSW 04:29:37 10° SSE visible
23 Jul - 19:15:19 10° SSW 19:23:57 21° SSE 19:29:54 10° ESE daylight
23 Jul - 21:36:35 10° SW 21:45:36 49° SSE 21:50:58 10° E visible
23 Jul - 23:59:49 10° W 00:05:57 86° S 00:10:25 10° E visible
24 Jul - 02:21:24 10° W 02:25:48 55° SSW 02:30:28 10° ESE visible
24 Jul - 04:42:45 10° WSW 04:45:44 16° SSW 04:49:20 10° S visible
24 Jul - 19:34:53 10° SSW 19:45:13 28° SSE 19:51:43 10° E daylight
24 Jul - 21:57:37 10° WSW 22:06:36 61° SSE 22:11:54 10° E visible
25 Jul - 00:21:03 10° W 00:26:54 87° S 00:31:19 10° E visible
25 Jul - 02:42:28 10° W 02:46:39 40° SSW 02:51:12 10° SE visible
25 Jul - 17:36:52 10° S 17:43:32 14° SSE 17:48:54 10° ESE daylight
25 Jul - 19:55:04 10° SW 20:06:25 37° SSE 20:13:05 10° E daylight
25 Jul - 22:18:52 10° WSW 22:27:35 73° SSE 22:32:47 10° E visible
26 Jul - 00:42:15 10° W 00:47:51 80° S 00:52:14 10° E visible
26 Jul - 03:03:42 10° W 03:07:29 27° SSW 03:11:40 10° SE visible
26 Jul - 17:54:36 10° S 18:04:58 20° SSE 18:12:16 10° ESE daylight
26 Jul - 20:15:43 10° SW 20:27:34 47° SSE 20:34:14 10° E visible
26 Jul - 22:40:13 10° W 22:48:35 82° S 22:53:39 10° E visible
27 Jul - 01:03:25 10° W 01:08:44 68° SSW 01:13:06 10° ESE visible
27 Jul - 03:25:14 10° WSW 03:28:19 18° SSW 03:31:41 10° SSE visible
27 Jul - 18:13:44 10° SSW 18:26:20 27° SSE 18:34:24 10° E daylight
27 Jul - 20:36:42 10° SW 20:48:41 57° SSE 20:55:13 10° E visible
27 Jul - 23:01:37 10° W 23:09:35 87° S 23:14:31 10° E visible
28 Jul - 01:24:34 10° W 01:29:36 52° SSW 01:33:53 10° ESE night (unlit)
28 Jul - 03:47:49 10° SW 03:49:09 11° SSW 03:50:32 10° SSW night (unlit)
28 Jul - 16:17:23 10° SSE 16:23:48 13° SE 16:29:16 10° SE daylight
28 Jul - 18:33:37 10° SSW 18:47:39 35° SSE 18:56:00 10° E daylight
28 Jul - 20:57:56 10° WSW 21:09:45 68° SSE 21:16:07 10° E visible
28 Jul - 23:23:01 10° W 23:30:35 86° S 23:35:23 10° E visible
